TimeEST,TemperatureF,Dew PointF,Humidity,Sea Level PressureIn,VisibilityMPH,Wind Direction,Wind SpeedMPH,Gust SpeedMPH,PrecipitationIn,Events,Conditions,WindDirDegrees,DateUTC
12:00 AM,62.6,60.8,94,30.11,9.0,Calm,Calm,-,N/A,,Overcast,0,2013-01-15 05:00:00
12:53 AM,63.0,61.0,93,30.10,3.0,SSE,3.5,-,0.00,Rain,Light Rain,160,2013-01-15 05:53:00
1:04 AM,62.6,60.8,94,30.12,4.0,South,3.5,-,0.00,,Overcast,180,2013-01-15 06:04:00
1:26 AM,62.6,60.8,94,30.12,4.0,Calm,Calm,-,0.01,Rain,Light Rain,0,2013-01-15 06:26:00
1:53 AM,63.0,61.0,93,30.10,2.5,Calm,Calm,-,0.01,Rain,Light Rain,0,2013-01-15 06:53:00
2:17 AM,62.6,60.8,94,30.12,3.0,ESE,4.6,-,0.01,Rain,Light Rain,120,2013-01-15 07:17:00
2:53 AM,59.0,57.0,93,30.10,2.5,ENE,3.5,-,0.03,Rain,Rain,60,2013-01-15 07:53:00
3:00 AM,59.0,57.2,94,30.12,4.0,NE,4.6,-,0.00,Rain,Light Rain,50,2013-01-15 08:00:00
3:53 AM,55.9,55.0,97,30.09,4.0,ENE,5.8,-,0.01,Rain,Light Rain,70,2013-01-15 08:53:00
4:02 AM,55.4,53.6,94,30.10,2.0,ENE,4.6,-,0.01,Rain,Light Rain,70,2013-01-15 09:02:00
4:26 AM,55.4,53.6,94,30.09,3.0,ENE,4.6,-,0.03,Rain,Light Rain,60,2013-01-15 09:26:00
4:53 AM,55.9,54.0,93,30.07,10.0,ENE,4.6,-,0.03,,Overcast,60,2013-01-15 09:53:00
5:53 AM,55.9,54.0,93,30.08,10.0,NE,3.5,-,N/A,,Overcast,40,2013-01-15 10:53:00
6:53 AM,55.9,54.0,93,30.10,10.0,Calm,Calm,-,N/A,,Overcast,0,2013-01-15 11:53:00
7:53 AM,55.9,54.0,93,30.12,10.0,NE,3.5,-,N/A,,Overcast,50,2013-01-15 12:53:00
8:53 AM,55.9,54.0,93,30.14,10.0,NE,9.2,-,0.00,Rain,Light Rain,40,2013-01-15 13:53:00
9:53 AM,55.0,53.1,93,30.14,10.0,ENE,6.9,-,0.00,Rain,Light Rain,70,2013-01-15 14:53:00
10:53 AM,53.1,52.0,96,30.14,5.0,NE,6.9,-,0.01,Rain,Light Rain,40,2013-01-15 15:53:00
11:53 AM,52.0,50.0,93,30.12,5.0,ENE,9.2,-,0.01,Rain,Light Rain,60,2013-01-15 16:53:00
12:53 PM,52.0,50.0,93,30.09,3.0,ENE,11.5,-,0.03,Rain,Light Rain,60,2013-01-15 17:53:00
1:37 PM,51.8,50.0,94,30.08,7.0,NE,9.2,-,0.04,Rain,Light Rain,50,2013-01-15 18:37:00
1:53 PM,52.0,48.9,89,30.07,10.0,NE,10.4,-,0.04,Rain,Light Rain,50,2013-01-15 18:53:00
2:53 PM,51.1,48.0,89,30.05,7.0,NE,13.8,21.9,0.01,Rain,Light Rain,50,2013-01-15 19:53:00
3:53 PM,50.0,46.9,89,30.06,10.0,ENE,11.5,19.6,0.00,,Overcast,60,2013-01-15 20:53:00
4:19 PM,48.2,46.4,93,30.07,10.0,NE,10.4,-,N/A,,Overcast,50,2013-01-15 21:19:00
4:53 PM,48.9,46.9,93,30.07,4.0,NE,11.5,-,N/A,,Overcast,50,2013-01-15 21:53:00
5:53 PM,48.0,46.0,93,30.09,10.0,NE,10.4,-,N/A,,Overcast,50,2013-01-15 22:53:00
6:53 PM,48.0,46.0,93,30.09,10.0,NE,10.4,-,0.00,,Overcast,40,2013-01-15 23:53:00
7:53 PM,46.9,45.0,93,30.07,10.0,NE,10.4,-,0.01,,Overcast,50,2013-01-16 00:53:00
8:06 PM,46.4,44.6,93,30.06,10.0,ENE,12.7,-,N/A,,Overcast,60,2013-01-16 01:06:00
8:53 PM,46.0,44.1,93,30.05,10.0,NE,12.7,-,N/A,,Overcast,50,2013-01-16 01:53:00
9:00 PM,46.4,44.6,93,30.05,10.0,NE,13.8,20.7,N/A,,Overcast,50,2013-01-16 02:00:00
9:34 PM,46.4,42.8,87,30.05,10.0,NE,13.8,-,N/A,,Overcast,50,2013-01-16 02:34:00
9:53 PM,46.0,43.0,89,30.05,10.0,NE,10.4,-,N/A,,Overcast,50,2013-01-16 02:53:00
10:07 PM,46.4,42.8,87,30.06,10.0,NE,10.4,-,N/A,,Overcast,40,2013-01-16 03:07:00
10:16 PM,46.4,42.8,87,30.05,10.0,NE,12.7,-,N/A,,Overcast,50,2013-01-16 03:16:00
10:53 PM,46.0,43.0,89,30.06,10.0,NE,4.6,-,N/A,,Overcast,50,2013-01-16 03:53:00
11:25 PM,46.4,42.8,87,30.05,8.0,Variable,5.8,-,0.00,Rain,Light Rain,0,2013-01-16 04:25:00
11:53 PM,46.0,43.0,89,30.06,10.0,ENE,9.2,-,0.02,Rain,Light Rain,60,2013-01-16 04:53:00